Wind_Speed
8 8 7 7 8 9 10 11 11 12 14 14 14 14 14 14 15 16 15 16 17 18 19 21 22 23 23 24 24 24 24 24 24 25 26 25 25 25 25 25 27 28 29 30
6 6 6 7 8 9 9 10 11 12 13 13 13 14 14 15 16 15 15 16 17 17 18 19 20 21 22 22 23 23 23 23 24 24 24 24 24 25 26 26 27 28 29 29
6 6 7 8 9 9 9 9 10 11 12 12 13 14 14 14 15 15 15 15 15 15 15 16 16 17 18 20 20 21 22 22 23 23 22 23 24 25 26 26 27 28 28 29
6 7 8 8 8 9 10 10 10 11 11 11 11 11 12 12 13 14 14 14 14 13 13 13 14 15 16 17 19 20 20 21 22 23 23 24 24 24 25 25 26 27 27 28
6 7 8 9 9 9 9 9 9 10 10 10 10 10 10 10 10 12 13 12 12 13 13 12 13 14 15 16 16 17 18 20 21 21 22 22 23 23 24 24 25 25 25 26
6 7 8 9 9 9 8 8 9 9 9 9 9 9 9 9 9 10 11 10 10 11 12 12 13 13 14 15 16 16 17 18 19 19 20 20 21 22 22 22 23 23 24 24
6 7 8 8 8 8 7 8 8 8 8 8 8 8 8 8 9 10 10 10 10 10 10 11 12 13 14 15 15 16 17 17 17 18 19 19 19 20 20 21 21 22 22 22
5 6 7 6 6 6 6 6 7 7 7 7 6 6 7 7 8 8 8 8 9 10 11 12 12 12 13 14 15 15 16 16 16 16 17 18 18 19 19 19 20 20 20 20
5 5 5 5 5 5 5 5 5 5 6 5 5 5 4 5 6 7 7 7 8 10 10 11 11 11 12 12 13 13 14 14 15 15 15 15 16 16 17 17 17 17 17 16
3 3 4 4 4 4 4 4 4 5 5 5 4 4 3 4 4 5 6 6 7 8 9 9 9 10 10 11 11 12 12 12 12 12 12 13 13 14 14 14 14 14 14 14
2 1 2 2 3 3 3 4 4 4 5 5 5 4 4 4 3 4 4 4 5 5 5 7 8 8 9 9 10 10 10 10 10 11 12 12 12 12 12 12 12 12 12 12
2 1 1 2 3 3 4 4 4 4 5 6 6 6 6 6 5 5 4 3 3 3 4 5 6 7 7 7 7 7 7 8 8 8 9 9 9 9 9 9 10 10 10 9
3 3 3 3 4 5 5 6 6 7 7 7 8 8 8 8 8 7 6 5 4 4 4 5 6 6 6 6 5 5 5 5 6 6 6 6 6 5 6 6 6 6 6 6
5 4 5 5 6 6 7 8 8 8 8 9 9 9 10 9 9 9 8 7 6 6 6 5 5 4 3 3 3 3 3 3 3 3 3 3 3 3 3 3 2 2 2 3
6 6 6 6 6 7 8 9 10 10 10 11 11 11 11 11 11 10 9 9 8 8 7 7 6 5 4 3 1 1 0 0 1 1 1 1 1 1 1 1 1 1 2 2
8 7 7 8 8 9 10 11 11 12 12 12 13 13 13 13 13 12 12 11 10 10 9 9 9 9 7 6 5 4 3 3 3 3 3 3 3 3 3 3 3 3 3 3
9 9 8 8 9 9 10 11 12 13 13 13 14 14 14 15 15 15 14 14 13 12 12 12 12 11 11 10 8 7 6 6 5 5 5 5 5 5 5 5 5 5 5 5
10 10 9 9 9 10 11 12 12 13 14 14 15 15 16 16 17 17 17 17 16 15 15 14 14 14 13 12 12 11 10 9 9 8 8 7 7 7 7 7 7 7 7 7
12 11 10 10 10 10 11 12 12 13 14 15 16 16 17 17 17 17 18 18 18 18 17 16 16 16 15 15 14 13 13 12 11 10 10 9 9 9 9 8 8 8 8 8
13 12 11 10 10 10 11 11 12 13 14 15 16 16 17 18 18 18 18 18 18 18 18 18 17 17 17 16 16 15 14 13 13 12 11 11 11 10 10 9 9 8 8 8
14 12 11 11 11 11 11 11 12 13 14 14 15 16 16 17 18 18 18 18 18 18 18 18 18 18 17 17 17 16 16 15 14 13 13 12 11 11 10 10 9 9 9 9
15 13 12 11 11 11 11 11 12 12 13 14 14 15 16 16 17 17 18 18 18 18 18 18 18 18 18 17 17 17 16 15 14 13 13 12 12 11 11 10 10 9 9 9
16 14 12 11 10 10 10 10 11 11 12 13 13 14 15 15 16 16 17 17 17 17 17 18 18 17 17 17 17 16 16 15 14 14 13 12 12 11 11 10 10 9 9 8
17 15 13 12 10 10 9 9 10 10 11 12 12 13 13 14 15 15 16 16 16 16 16 16 16 16 16 16 16 16 15 15 14 13 13 12 12 11 11 10 10 9 9 9
19 17 15 13 11 9 8 8 8 9 9 10 11 11 12 12 13 14 14 15 15 15 15 15 15 15 14 14 14 14 14 14 13 13 12 12 11 11 10 10 9 9 9 9
20 18 16 13 11 9 8 7 7 7 7 8 9 10 10 11 12 12 12 13 13 14 14 14 14 14 13 13 13 13 13 12 12 12 11 11 11 10 10 9 9 8 8 8
22 19 16 14 12 10 8 6 6 5 5 6 7 8 9 9 10 11 11 11 12 12 12 13 13 13 12 12 12 12 12 12 11 11 11 11 10 10 10 9 9 8 8 8
Wind_Direction
292 289 286 282 277 274 272 270 270 270 271 271 270 269 266 261 260 258 259 257 251 249 247 245 243 240 238 239 241 242 244 246 248 248 248 250 253 254 255 258 260 263 265 267
297 299 297 291 284 278 276 276 277 277 278 276 273 271 270 266 265 258 258 259 256 252 251 245 243 241 239 240 241 242 243 247 247 247 247 250 255 257 259 262 265 267 270 271
290 295 300 298 291 283 281 279 280 281 281 279 275 273 270 269 264 259 256 257 255 253 252 245 241 239 239 238 241 244 245 246 248 251 254 257 260 261 263 266 269 271 272 274
281 289 297 299 297 293 291 285 284 283 281 280 276 272 272 270 259 252 252 259 258 255 251 247 245 243 242 243 243 246 248 249 251 255 258 259 261 264 265 268 271 273 274 276
276 288 294 299 299 298 293 291 290 288 286 284 281 275 269 263 258 253 260 259 254 253 250 249 250 252 251 250 253 252 250 251 253 255 259 262 265 268 270 271 273 274 276 277
275 287 287 294 298 297 297 296 299 297 297 293 284 274 268 267 263 263 264 261 257 256 255 255 258 260 259 259 257 257 258 257 259 261 264 267 268 270 271 272 273 275 277 279
274 282 287 295 296 299 300 303 306 303 301 299 291 279 270 271 269 264 263 264 263 263 263 265 265 265 262 262 261 264 267 266 266 266 267 269 270 271 272 273 275 276 278 279
267 275 285 294 298 302 307 310 310 311 309 306 297 284 276 275 271 265 263 262 264 266 269 271 270 267 267 268 266 269 270 268 268 269 270 270 271 272 273 273 275 276 277 279
260 273 285 295 302 309 316 317 319 324 325 319 315 301 291 289 277 265 267 271 270 271 271 272 271 272 273 273 273 272 271 269 269 271 271 272 274 275 274 275 275 276 277 278
254 274 289 300 311 318 328 334 332 334 338 344 343 330 322 312 301 293 290 284 280 276 276 274 274 274 275 275 273 272 272 272 272 272 274 276 278 278 278 278 277 277 278 279
232 270 313 332 339 343 351 354 350 353 0 8 6 358 350 344 338 328 316 303 290 283 282 283 281 277 277 274 273 274 272 271 274 277 277 279 280 281 280 278 277 277 278 280
187 144 71 46 37 33 31 25 16 14 23 31 30 25 26 22 15 11 3 351 333 318 308 298 288 284 279 278 278 275 276 276 280 283 281 282 284 281 281 281 278 277 278 280
151 126 100 82 69 55 47 42 43 45 46 43 38 37 34 32 29 27 26 24 17 0 339 321 308 299 289 283 280 281 281 282 286 288 289 286 286 286 288 289 286 283 283 286
141 122 107 90 82 68 59 57 57 54 51 47 45 44 42 40 38 38 38 36 27 17 7 356 344 330 313 299 290 284 280 281 286 295 305 313 311 306 302 299 298 300 302 307
136 118 108 96 86 76 68 64 61 60 58 56 54 52 50 47 44 43 42 40 36 34 31 30 29 29 28 25 12 348 294 299 344 10 23 23 18 18 19 22 29 23 10 5
136 121 110 101 92 85 78 72 67 64 62 59 57 55 53 50 48 48 48 47 48 49 47 47 50 54 58 63 68 75 83 85 78 75 78 79 77 73 69 69 67 63 55 50
139 127 116 106 97 90 83 77 71 66 63 61 60 58 56 55 54 54 54 54 56 58 58 58 59 60 62 66 71 75 79 83 85 88 91 91 89 85 81 79 76 72 67 62
140 129 120 111 102 93 86 80 74 70 66 64 63 62 60 59 59 59 59 60 60 61 62 61 62 63 64 67 69 72 76 82 86 89 91 91 89 86 84 81 77 72 68 64
143 134 123 114 106 97 90 83 77 72 69 67 65 64 63 62 61 61 61 61 62 63 64 64 65 65 66 67 70 73 76 79 81 84 86 87 87 84 81 79 76 73 70 67
146 137 128 118 110 101 93 87 81 75 72 70 67 66 65 64 62 62 62 63 63 63 64 65 66 67 67 69 71 73 74 76 78 80 81 82 81 80 79 77 74 73 71 67
150 142 133 123 113 105 97 90 84 78 74 72 69 67 65 64 63 62 62 63 63 64 64 65 65 66 67 69 70 71 72 73 75 76 77 77 76 75 73 72 72 70 69 65
156 148 140 130 119 110 102 94 87 81 76 72 69 67 65 64 63 62 62 62 63 64 64 64 65 66 66 67 68 69 69 70 71 71 71 72 71 71 69 68 68 67 65 63
162 156 148 138 127 116 107 98 89 82 77 73 69 66 64 63 62 61 61 61 61 62 62 63 63 64 64 64 64 65 65 66 66 66 67 67 68 67 65 64 63 61 59 58
167 162 156 147 137 125 114 103 93 85 78 73 69 66 63 61 60 59 59 58 58 59 59 60 60 61 62 62 62 62 62 62 62 62 61 61 61 61 59 58 57 55 54 52
171 168 163 157 148 137 125 112 100 89 80 73 69 65 62 59 57 56 56 56 55 54 54 55 55 56 57 57 57 56 56 55 54 54 53 53 52 51 50 50 50 50 48 45
178 175 171 166 160 152 140 127 111 95 82 72 67 63 59 56 53 51 49 49 49 49 49 49 49 49 49 50 49 48 47 46 45 44 43 42 41 41 40 38 37 36 35 32
183 181 178 174 170 164 156 143 127 106 86 72 63 58 54 50 47 44 42 41 40 40 40 40 40 40 39 39 39 39 38 38 37 36 34 33 32 30 28 26 24 21 18 14
Height
5741 5740 5739 5738 5738 5737 5736 5735 5735 5734 5733 5732 5731 5731 5731 5731 5732 5732 5732 5733 5733 5734 5735 5736 5737 5738 5740 5741 5743 5744 5746 5747 5748 5748 5749 5750 5750 5750 5751 5751 5751 5751 5751 5751
5739 5738 5737 5736 5735 5734 5733 5732 5731 5730 5730 5728 5727 5727 5727 5727 5727 5727 5728 5728 5728 5729 5729 5730 5731 5732 5734 5735 5737 5738 5739 5740 5741 5742 5742 5743 5744 5744 5744 5744 5744 5744 5743 5743
5738 5737 5736 5735 5734 5732 5731 5730 5729 5727 5727 5725 5724 5723 5723 5722 5722 5723 5723 5723 5723 5724 5724 5725 5726 5727 5728 5730 5731 5732 5733 5734 5735 5735 5736 5737 5737 5737 5737 5737 5737 5736 5736 5735
5736 5736 5735 5735 5732 5730 5729 5727 5726 5724 5723 5722 5721 5720 5719 5719 5718 5719 5719 5719 5719 5720 5720 5721 5722 5723 5724 5724 5725 5726 5727 5728 5729 5729 5730 5730 5730 5731 5731 5730 5730 5729 5729 5728
5735 5734 5733 5732 5730 5728 5726 5725 5723 5722 5720 5719 5717 5716 5716 5715 5715 5715 5715 5715 5715 5716 5716 5717 5718 5718 5719 5720 5720 5721 5722 5722 5723 5724 5724 5724 5724 5724 5724 5724 5723 5723 5722 5720
5733 5732 5732 5731 5728 5725 5725 5723 5721 5719 5717 5716 5715 5714 5714 5713 5712 5712 5712 5712 5712 5713 5713 5713 5714 5714 5715 5716 5716 5717 5717 5717 5718 5718 5718 5718 5718 5718 5718 5717 5717 5716 5715 5714
5731 5730 5729 5728 5725 5724 5724 5723 5719 5717 5716 5714 5713 5712 5712 5710 5710 5710 5710 5710 5710 5710 5710 5710 5710 5711 5711 5711 5711 5712 5712 5713 5713 5713 5713 5713 5713 5712 5712 5711 5710 5710 5709 5708
5729 5728 5729 5726 5724 5723 5722 5719 5717 5716 5714 5712 5711 5710 5709 5708 5708 5707 5707 5707 5707 5707 5707 5707 5707 5707 5707 5707 5707 5707 5707 5708 5708 5708 5708 5708 5707 5707 5706 5705 5704 5704 5703 5702
5728 5729 5726 5724 5722 5721 5719 5718 5716 5714 5713 5711 5709 5708 5707 5706 5706 5705 5705 5704 5704 5704 5704 5703 5703 5703 5703 5703 5703 5703 5703 5703 5703 5703 5703 5702 5702 5701 5700 5700 5699 5698 5698 5697
5726 5725 5724 5723 5721 5720 5718 5717 5715 5713 5712 5710 5709 5707 5706 5705 5704 5703 5703 5702 5701 5701 5700 5700 5700 5700 5700 5699 5699 5699 5699 5699 5699 5699 5698 5698 5697 5696 5696 5695 5695 5694 5693 5692
5725 5724 5723 5722 5721 5719 5718 5716 5714 5713 5711 5709 5708 5707 5705 5704 5703 5702 5701 5700 5699 5699 5698 5698 5697 5697 5696 5696 5695 5695 5695 5695 5695 5695 5694 5694 5693 5692 5692 5691 5690 5690 5689 5689
5725 5724 5723 5722 5721 5719 5718 5716 5714 5713 5711 5709 5708 5706 5705 5704 5702 5701 5700 5699 5698 5697 5696 5696 5695 5694 5693 5693 5692 5692 5692 5692 5691 5691 5690 5690 5689 5689 5688 5688 5687 5687 5686 5686
5725 5724 5723 5722 5721 5720 5718 5717 5715 5713 5712 5710 5709 5707 5705 5704 5702 5701 5699 5698 5697 5696 5695 5694 5692 5691 5691 5690 5690 5690 5690 5689 5689 5689 5688 5687 5687 5687 5686 5686 5685 5684 5684 5683
5725 5725 5724 5723 5722 5721 5720 5718 5716 5715 5713 5712 5710 5708 5706 5705 5703 5701 5700 5698 5697 5696 5694 5692 5691 5689 5688 5688 5688 5688 5688 5688 5687 5687 5686 5686 5686 5685 5685 5684 5684 5683 5683 5682
5726 5726 5725 5724 5724 5722 5721 5720 5718 5717 5715 5714 5712 5710 5708 5706 5704 5703 5701 5699 5697 5696 5694 5692 5691 5689 5687 5687 5687 5687 5687 5687 5687 5686 5686 5686 5685 5685 5685 5684 5684 5683 5683 5682
5726 5727 5726 5726 5725 5725 5723 5722 5721 5719 5718 5716 5714 5712 5710 5708 5706 5704 5702 5700 5699 5697 5695 5693 5691 5690 5688 5687 5687 5687 5687 5687 5687 5687 5686 5686 5686 5686 5685 5685 5684 5684 5683 5683
5727 5728 5728 5728 5728 5727 5726 5725 5724 5722 5720 5719 5717 5715 5713 5711 5709 5707 5704 5702 5701 5699 5697 5696 5694 5692 5691 5689 5689 5688 5688 5687 5687 5687 5687 5687 5687 5687 5687 5686 5686 5685 5684 5684
5729 5730 5730 5730 5730 5729 5728 5727 5726 5725 5723 5722 5720 5718 5716 5714 5712 5710 5708 5706 5704 5702 5700 5699 5697 5695 5694 5692 5691 5690 5690 5689 5689 5689 5689 5689 5689 5689 5688 5688 5687 5687 5686 5685
5730 5731 5731 5732 5732 5731 5731 5730 5729 5728 5727 5725 5724 5722 5720 5718 5716 5714 5712 5709 5707 5706 5704 5702 5701 5699 5698 5696 5695 5694 5693 5693 5692 5692 5692 5692 5691 5691 5690 5690 5689 5689 5688 5687
5731 5732 5733 5734 5734 5734 5733 5733 5732 5731 5730 5729 5727 5725 5724 5722 5720 5718 5716 5714 5712 5710 5708 5707 5705 5703 5702 5701 5699 5698 5697 5697 5696 5696 5695 5695 5694 5693 5693 5692 5692 5691 5690 5689
5732 5733 5735 5735 5736 5736 5736 5735 5735 5734 5733 5732 5730 5729 5727 5726 5724 5722 5720 5718 5716 5714 5713 5711 5709 5708 5706 5705 5704 5703 5702 5701 5700 5699 5699 5698 5697 5696 5696 5695 5694 5693 5693 5692
5733 5734 5736 5737 5738 5738 5738 5738 5737 5737 5736 5735 5734 5732 5731 5729 5728 5726 5724 5722 5721 5719 5717 5716 5714 5713 5711 5710 5708 5707 5706 5705 5704 5703 5702 5701 5700 5700 5699 5698 5697 5696 5695 5694
5733 5735 5737 5738 5739 5740 5740 5740 5740 5739 5739 5738 5737 5736 5734 5733 5731 5730 5728 5727 5725 5723 5722 5720 5719 5717 5716 5714 5713 5711 5710 5709 5708 5707 5706 5704 5703 5702 5701 5701 5700 5699 5697 5696
5733 5736 5738 5739 5741 5741 5742 5742 5742 5742 5741 5741 5740 5739 5738 5736 5735 5733 5732 5730 5728 5727 5726 5724 5723 5721 5720 5718 5717 5715 5714 5713 5711 5710 5709 5708 5706 5705 5704 5703 5702 5701 5700 5698
5733 5736 5738 5740 5741 5743 5743 5743 5744 5744 5743 5743 5742 5741 5740 5739 5738 5736 5735 5733 5732 5730 5729 5727 5726 5724 5723 5721 5720 5719 5717 5716 5715 5713 5712 5711 5709 5708 5707 5705 5704 5703 5702 5700
5732 5735 5738 5740 5742 5743 5744 5745 5745 5745 5745 5744 5744 5743 5742 5741 5740 5739 5738 5736 5735 5733 5732 5730 5729 5727 5726 5724 5723 5722 5720 5719 5717 5716 5715 5713 5712 5710 5709 5707 5706 5705 5703 5702
5730 5734 5737 5739 5742 5743 5744 5745 5746 5746 5746 5746 5745 5745 5744 5743 5742 5741 5740 5738 5737 5736 5734 5733 5731 5730 5728 5727 5725 5724 5722 5721 5719 5718 5716 5715 5713 5712 5710 5709 5707 5706 5704 5702